EW1955 Weather Reports


Display with metric or nautical units.
time (UTC)temp
F
wind
direction
speed
MPH
gust
MPH
rain 1hr
in
rain 24hr
in
rain mn
in
humidity
%
barometer
mb
20260503200106 62 66 4.0 10.0 0.00 0.00 0.00 47 1015.2
20260503200057 0 0.0 0.0 0.00 0.00 0.00 1014.0
20260503194556 0 0.0 0.0 0.00 0.00 0.00 1014.3
20260503193107 61 35 4.0 12.0 0.00 0.00 0.00 45 1015.9
20260503193052 0 0.0 0.0 0.00 0.00 0.00 1014.7
20260503191603 62 330 5.0 16.0 0.00 0.00 0.00 45 1015.5
20260503191547 0 0.0 0.0 0.00 0.00 0.00 1014.4
20260503190059 62 30 6.0 13.0 0.00 0.00 0.00 49 1015.8
20260503190041 0 0.0 0.0 0.00 0.00 0.00 1014.6
20260503184552 62 1 4.0 10.0 0.00 0.00 0.00 45 1015.9
20260503184536 0 0.0 0.0 0.00 0.00 0.00 1014.7
20260503183116 61 3 4.0 10.0 0.00 0.00 0.00 45 1016.5
20260503183031 0 0.0 0.0 0.00 0.00 0.00 1015.3
20260503181619 60 354 5.0 12.0 0.00 0.00 0.00 47 1016.8
20260503181529 0 0.0 0.0 0.00 0.00 0.00 1015.5
20260503180059 60 322 3.0 12.0 0.00 0.00 0.00 46 1017.4
20260503180029 0 0.0 0.0 0.00 0.00 0.00 1016.1
20260503174553 59 1 5.0 13.0 0.00 0.00 0.00 45 1017.6
20260503174522 0 0.0 0.0 0.00 0.00 0.00 1016.3
20260503173058 59 47 3.0 8.0 0.00 0.00 0.00 49 1017.8
20260503173035 0 0.0 0.0 0.00 0.00 0.00 1016.6
20260503171558 59 316 4.0 11.0 0.00 0.00 0.00 43 1018.0
20260503171514 0 0.0 0.0 0.00 0.00 0.00 1016.7
20260503140139 52 336 3.0 9.0 0.00 0.00 0.00 53 1020.0
20260503140103 52 336 3.0 9.0 0.00 0.00 0.00 53 1020.0
20260503100109 38 8 2.0 4.0 0.00 0.00 0.00 75 1018.7
20260503090110 35 6 1.0 3.0 0.00 0.00 0.00 85 1018.7
20260503081556 35 0 0.0 0.0 0.00 0.00 0.00 85 1018.7
20260503081517 0 0.0 0.0 0.00 0.00 0.00 1017.6
20260503071606 35 0 0.0 0.0 0.00 0.00 0.00 84 1018.8
20260503071600 0 0.0 0.0 0.00 0.00 0.00 1017.7
20260503070113 35 0 0.0 0.0 0.00 0.00 0.00 84 1018.8
20260503060120 36 0 0.0 0.0 0.00 0.00 0.00 82 1019.3
20260503054559 36 0 0.0 0.0 0.00 0.00 0.00 82 1019.2
20260503054535 0 0.0 0.0 0.00 0.00 0.00 1018.1
20260503053055 36 0 0.0 0.0 0.00 0.00 0.00 82 1019.5
20260503053024 0 0.0 0.0 0.00 0.00 0.00 1018.3
20260503051554 37 0 0.0 0.0 0.00 0.00 0.00 81 1019.5
20260503051526 0 0.0 0.0 0.00 0.00 0.00 1018.4
20260503050055 37 0 0.0 0.0 0.00 0.00 0.00 80 1019.5
20260503050018 0 0.0 0.0 0.00 0.00 0.00 1018.3
20260503044557 37 0 0.0 0.0 0.00 0.00 0.00 80 1019.6
20260503044524 0 0.0 0.0 0.00 0.00 0.00 1018.4
20260503043053 37 0 0.0 0.0 0.00 0.00 0.00 79 1019.5
20260503043011 0 0.0 0.0 0.00 0.00 0.00 1018.3
20260503041557 38 0 0.0 0.0 0.00 0.00 0.00 77 1019.3
20260503041510 0 0.0 0.0 0.00 0.00 0.00 1018.2
20260503040057 38 0 0.0 0.0 0.00 0.00 0.00 76 1019.4
20260503040005 0 0.0 0.0 0.00 0.00 0.00 1018.3
20260503034611 38 0 0.0 0.0 0.00 0.00 0.00 75 1019.4
20260503034501 0 0.0 0.0 0.00 0.00 0.00 1018.3
20260503033110 0 0.0 0.0 0.00 0.00 0.00 1018.4
20260503033101 39 0 0.0 0.0 0.00 0.00 0.00 74 1019.5
20260503031606 0 0.0 0.0 0.00 0.00 0.00 1018.3
20260503031559 40 0 0.0 0.0 0.00 0.00 0.00 73 1019.6
20260503030059 0 0.0 0.0 0.00 0.00 0.00 1018.4
20260503030057 40 0 0.0 0.0 0.00 0.00 0.00 72 1019.6
20260503024608 0 0.0 0.0 0.00 0.00 0.00 1018.5
20260503024553 41 0 0.0 0.0 0.00 0.00 0.00 70 1019.6
20260503023105 0 0.0 0.0 0.00 0.00 0.00 1018.3
20260503023100 41 0 0.0 0.0 0.00 0.00 0.00 68 1019.4
20260503023003 0 0.0 0.0 0.00 0.00 0.00 1018.3
20260503021556 42 0 0.0 0.0 0.00 0.00 0.00 66 1019.3
20260503021504 0 0.0 0.0 0.00 0.00 0.00 1018.2
20260503020053 43 0 0.0 0.0 0.00 0.00 0.00 65 1019.2
20260503020002 0 0.0 0.0 0.00 0.00 0.00 1018.1
20260503014555 44 0 0.0 0.0 0.00 0.00 0.00 62 1018.9
20260503014502 0 0.0 0.0 0.00 0.00 0.00 1017.8
20260503013114 0 0.0 0.0 0.00 0.00 0.00 1017.7
20260503013056 46 0 0.0 0.0 0.00 0.00 0.00 59 1018.8
20260503011606 47 0 0.0 0.0 0.00 0.00 0.00 56 1018.7
20260503011604 0 0.0 0.0 0.00 0.00 0.00 1017.7
20260503010118 48 0 0.0 0.0 0.00 0.00 0.00 55 1018.7
20260503010058 0 0.0 0.0 0.00 0.00 0.00 1017.6
20260503004554 0 0.0 0.0 0.00 0.00 0.00 1017.6
20260503003104 0 0.0 0.0 0.00 0.00 0.00 1017.6
20260503003100 50 0 0.0 1.0 0.00 0.00 0.00 48 1018.9
20260503001601 0 0.0 0.0 0.00 0.00 0.00 1017.4
20260503001559 50 0 0.0 3.0 0.00 0.00 0.00 46 1018.7
20260503001502 0 0.0 0.0 0.00 0.00 0.00 1017.4
20260503000111 0 0.0 0.0 0.00 0.00 0.00 1017.3
20260503000106 51 116 0.0 4.0 0.00 0.00 0.00 44 1018.6
20260502234559 0 0.0 0.0 0.00 0.00 0.00 1017.2
20260502234554 51 182 3.0 6.0 0.00 0.00 0.00 42 1018.5
20260502233100 0 0.0 0.0 0.00 0.00 0.00 1017.0
20260502233055 51 205 2.0 5.0 0.00 0.00 0.00 42 1018.3
20260502231555 51 171 0.0 5.0 0.00 0.00 0.00 42 1018.5
20260502231551 0 0.0 0.0 0.00 0.00 0.00 1017.2
20260502230055 52 164 0.0 4.0 0.00 0.00 0.00 43 1018.6
20260502230047 0 0.0 0.0 0.00 0.00 0.00 1017.3
20260502224601 52 158 1.0 5.0 0.00 0.00 0.00 43 1018.6
20260502224542 0 0.0 0.0 0.00 0.00 0.00 1017.2
20260502223054 51 116 0.0 6.0 0.00 0.00 0.00 44 1018.6
20260502223040 0 0.0 0.0 0.00 0.00 0.00 1017.3
20260502221554 52 0 0.0 7.0 0.00 0.00 0.00 43 1018.4
20260502221535 0 0.0 0.0 0.00 0.00 0.00 1017.1
20260502220056 52 138 1.0 8.0 0.00 0.00 0.00 40 1018.5
20260502220032 0 0.0 0.0 0.00 0.00 0.00 1017.2
20260502214617 52 153 2.0 9.0 0.00 0.00 0.00 44 1018.5
20260502214526 0 0.0 0.0 0.00 0.00 0.00 1017.2
20260502213056 52 151 2.0 6.0 0.00 0.00 0.00 42 1018.4
20260502213029 0 0.0 0.0 0.00 0.00 0.00 1017.0
20260502211604 52 154 1.0 9.0 0.00 0.00 0.00 41 1018.4
20260502211525 0 0.0 0.0 0.00 0.00 0.00 1017.0
20260502210056 53 183 2.0 12.0 0.00 0.00 0.00 43 1018.3
20260502210020 0 0.0 0.0 0.00 0.00 0.00 1017.0
20260502204554 52 120 1.0 9.0 0.00 0.00 0.00 43 1018.4
20260502204522 0 0.0 0.0 0.00 0.00 0.00 1017.0
20260502203106 53 225 0.0 6.0 0.00 0.00 0.00 46 1018.4
20260502203016 0 0.0 0.0 0.00 0.00 0.00 1017.0
20260502201606 53 118 2.0 9.0 0.00 0.00 0.00 43 1018.5
20260502201507 0 0.0 0.0 0.00 0.00 0.00 1017.2